カタログに戻る

ORBCOMM FM 26

運用中通信LEO
NORAD 25480·PAYLOAD·🇺🇸 United States

打ち上げ Sep 23, 1998 から Cape Canaveral Space Force Station

Loading…

次のパス (今後24時間)

TLE

最新Source: Space-Track

元期: Sep 14, 2026, 09:42 UTC

1 25480U 98053F   26257.40482962  .00000432  00000-0  18787-3 0  9994
2 25480  45.0058 271.6392 0005715 354.7021   5.3766 14.38088910463016

AllMySatでORBCOMM FM 26をリアルタイム追跡

Download on the App Store